weather.gov     
National Weather Service

Terminal Aerodrome Forecast
NWS Homepage
This page is being discontinued on March 12, 2014.
The same data is available at this site. Please update your bookmarks.
Thank you, and we apologize for the inconvenience.
Please send an email to SR-SRH.Webmaster@noaa.gov with any concerns.


Current Version
Previous Version:    01  02  03  04  05  06  07  08  09  10  11  12  13  14  15  16  17  18  19  20  21  22  23  24  25  
[Printable]
114
FTUS42 KTBW 020500
TAFSRQ
TAF
KSRQ 020532Z 0206/0306 06005KT P6SM FEW030 SCT250
     FM021500 05006KT P6SM SCT030 SCT150
     FM021800 28007KT P6SM VCTS SCT035CB SCT150
     FM022100 32009KT P6SM VCTS BKN050CB BKN150
     FM030100 06005KT P6SM BKN100 BKN250=


U.S. Dept. of Commerce
NOAA National Weather Service
1325 East West Highway
Silver Spring, MD 20910
E-mail: w-nws.webmaster@noaa.gov
Page last modified: May 16, 2007
NATIONAL WEATHER SERVICE: for Safety, for Work, for Fun - FOR LIFE